Weather History for Wiscasset, ME

Change the Weather History Date:

Sunday, February 17, 2013

  Actual Average Record
Temperature  
Mean Temperature 23 °F -  
Max Temperature 27 °F 32 °F 50 °F (2006)
Min Temperature 19 °F 13 °F -5 °F (2000)
Degree Days  
Heating Degree Days 42    
Moisture  
Dew Point 12 °F    
Average Humidity 68    
Maximum Humidity 86    
Minimum Humidity 46    
Precipitation  
Precipitation 0.01 in - - ()
Sea Level Pressure  
Sea Level Pressure 29.31 in    
Wind  
Wind Speed 9 mph (NW)    
Max Wind Speed 16 mph    
Max Gust Speed 34 mph    
Visibility 3 miles    
Events Fog , Snow    
Averages and records for this station are not official NWS values.
T = Trace of Precipitation, MM = Missing Value Source: NWS Daily Summary

Daily Weather History Graph

Daily Weather History Graph

Search for Another Location

Airport:

Trip Planner

Search our weather history database for the weather conditions in past years. The results will help you decide how hot, cold, wet, or windy it might be!

Date:

Astronomy

Feb. 17, 2013 Rise Set
Actual Time 6:34 AM EST 5:11 PM EST
Civil Twilight 6:05 AM EST 5:41 PM EST
Nautical Twilight 5:31 AM EST 6:14 PM EST
Astronomical Twilight 4:58 AM EST 6:48 PM EST
Moon 10:09 AM EST (2/17) 12:20 AM EST (2/17)
Length of Visible Light 11h 35m
Length of Day
10h 37m
Waxing Crescent, 49% of the Moon is Illuminated
Feb 17
Waxing Crescent
Feb 17
First Quarter
Feb 25
Full
Mar 4
Last Quarter
Mar 11
New

Hourly Weather History & Observations

Time (EST) Temp. Windchill Dew Point Humidity Pressure Visibility Wind Dir Wind Speed Gust Speed Precip Events Conditions
12:53 AM 27.0 °F 19.5 °F 10.9 °F 51% 29.72 in 10.0 mi Variable 6.9 mph - 0.00 in   Overcast
1:53 AM 26.1 °F 18.4 °F 8.1 °F 47% 29.71 in 10.0 mi Variable 6.9 mph - N/A   Overcast
2:53 AM 25.0 °F 18.1 °F 7.0 °F 46% 29.65 in 10.0 mi Variable 5.8 mph - N/A   Overcast
3:53 AM 24.1 °F 16.0 °F 6.1 °F 46% 29.61 in 10.0 mi Variable 6.9 mph 27.6 mph N/A   Overcast
4:53 AM 23.0 °F 14.7 °F 7.0 °F 50% 29.57 in 10.0 mi Variable 6.9 mph - N/A   Overcast
5:53 AM 21.9 °F 11.7 °F 10.0 °F 60% 29.53 in 7.0 mi North 9.2 mph - 0.00 in Snow Light Snow
6:53 AM 21.0 °F 11.4 °F 12.0 °F 68% 29.46 in 3.0 mi NNW 8.1 mph 21.9 mph 0.00 in Snow Light Snow
7:01 AM 21.2 °F 11.7 °F 12.2 °F 68% 29.45 in 1.8 mi NNW 8.1 mph 20.7 mph 0.00 in Snow Light Snow
7:10 AM 21.2 °F 10.9 °F 12.2 °F 68% 29.45 in 1.0 mi North 9.2 mph 25.3 mph 0.00 in Snow Light Snow
7:53 AM 21.0 °F 9.9 °F 14.0 °F 74% 29.42 in 1.0 mi NNW 10.4 mph 27.6 mph 0.01 in Snow Light Snow
8:03 AM 21.2 °F 10.9 °F 14.0 °F 74% 29.40 in 1.8 mi North 9.2 mph 20.7 mph 0.00 in Snow Light Snow
8:22 AM 21.2 °F 10.1 °F 15.8 °F 80% 29.38 in 1.2 mi NNW 10.4 mph 23.0 mph 0.00 in Snow Light Snow
8:50 AM 21.2 °F 9.5 °F 15.8 °F 80% 29.36 in 2.0 mi North 11.5 mph 26.5 mph 0.00 in Snow Light Snow
8:51 AM 21.0 °F 9.9 °F 15.1 °F 78% 29.36 in 2.0 mi North 10.4 mph 26.5 mph 0.00 in Snow Light Snow
9:07 AM 21.2 °F 10.1 °F 15.8 °F 80% 29.34 in 1.2 mi North 10.4 mph 27.6 mph 0.00 in Snow Light Snow
9:19 AM 21.2 °F 12.6 °F 14.0 °F 74% 29.33 in 2.0 mi Variable 6.9 mph 27.6 mph 0.00 in Snow Light Snow
9:48 AM 21.2 °F 9.5 °F 14.0 °F 74% 29.31 in 1.2 mi North 11.5 mph 28.8 mph 0.00 in Snow Light Snow
9:53 AM 21.9 °F 14.5 °F 15.1 °F 75% 29.31 in 0.8 mi Variable 5.8 mph 25.3 mph 0.00 in Snow Light Snow
10:13 AM 21.2 °F 12.6 °F 15.8 °F 80% 29.29 in 1.2 mi Variable 6.9 mph 26.5 mph 0.00 in Snow Light Snow
10:42 AM 23.0 °F 13.9 °F 15.8 °F 74% 29.28 in 0.8 mi NW 8.1 mph 24.2 mph 0.00 in Snow Light Snow
10:53 AM 21.9 °F 11.7 °F 17.1 °F 82% 29.28 in 0.2 mi North 9.2 mph 26.5 mph 0.00 in Snow Heavy Snow
11:01 AM 21.2 °F 9.5 °F 17.6 °F 86% 29.27 in 0.2 mi NNW 11.5 mph 21.9 mph 0.00 in Snow Heavy Snow
11:19 AM 21.2 °F 12.6 °F 17.6 °F 86% 29.25 in 0.2 mi Variable 6.9 mph - 0.00 in Fog , Snow Snow
11:31 AM 21.2 °F 13.6 °F 17.6 °F 86% 29.24 in 0.2 mi Variable 5.8 mph 20.7 mph 0.00 in Fog , Snow Snow
11:53 AM 21.9 °F 9.8 °F 18.0 °F 85% 29.22 in 0.2 mi NNW 12.7 mph 24.2 mph 0.00 in Fog , Snow Snow
12:25 PM 23.0 °F 11.7 °F 17.6 °F 80% 29.18 in 0.5 mi NNW 11.5 mph 27.6 mph 0.00 in Snow Snow
12:53 PM 24.1 °F 13.7 °F 18.0 °F 77% 29.17 in 0.8 mi NW 10.4 mph 24.2 mph 0.00 in Snow Light Snow
1:16 PM 23.0 °F 9.6 °F 17.6 °F 80% 29.16 in 1.0 mi NW 16.1 mph 28.8 mph 0.00 in Snow Light Snow
1:23 PM 23.0 °F 10.6 °F 17.6 °F 80% 29.16 in 1.2 mi WNW 13.8 mph 27.6 mph 0.00 in Snow Light Snow
1:51 PM 23.0 °F 13.1 °F 15.8 °F 74% 29.16 in 1.8 mi NW 9.2 mph 19.6 mph 0.00 in Snow Light Snow
1:53 PM 23.0 °F 13.1 °F 16.0 °F 74% 29.17 in 1.8 mi NW 9.2 mph 18.4 mph 0.00 in Snow Light Snow
2:08 PM 23.0 °F 13.9 °F 15.8 °F 74% 29.16 in 1.0 mi NW 8.1 mph 26.5 mph 0.00 in Snow Light Snow
2:15 PM 21.2 °F 10.1 °F 15.8 °F 80% 29.16 in 1.0 mi NW 10.4 mph 26.5 mph 0.00 in Snow Light Snow
2:26 PM 21.2 °F 10.9 °F 15.8 °F 80% 29.16 in 0.8 mi NW 9.2 mph 23.0 mph 0.00 in Snow Light Snow
2:53 PM 21.9 °F 11.0 °F 15.1 °F 75% 29.17 in 1.0 mi NW 10.4 mph 23.0 mph 0.00 in Snow Light Snow
3:04 PM 23.0 °F 12.4 °F 12.2 °F 63% 29.17 in 2.0 mi NW 10.4 mph 26.5 mph 0.00 in Snow Light Snow
3:25 PM 21.2 °F 9.5 °F 12.2 °F 68% 29.18 in 1.5 mi WNW 11.5 mph 26.5 mph 0.00 in Snow Light Snow
3:34 PM 21.2 °F 8.9 °F 12.2 °F 68% 29.18 in 1.0 mi WNW 12.7 mph 29.9 mph 0.00 in Snow Light Snow
3:53 PM 21.0 °F 11.4 °F 12.0 °F 68% 29.19 in 0.8 mi NW 8.1 mph 33.4 mph 0.00 in Snow Light Snow
4:00 PM 21.2 °F 9.5 °F 10.4 °F 63% 29.19 in 1.0 mi NW 11.5 mph 28.8 mph 0.00 in Snow Light Snow
4:18 PM 19.4 °F 6.0 °F 10.4 °F 68% 29.20 in 1.8 mi NW 13.8 mph 28.8 mph 0.00 in Snow Light Snow
4:25 PM 19.4 °F 8.6 °F 8.6 °F 63% 29.20 in 2.5 mi NW 9.2 mph 29.9 mph 0.00 in Snow Light Snow
4:44 PM 19.4 °F 5.5 °F 8.6 °F 63% 29.21 in 1.5 mi NW 15.0 mph 33.4 mph 0.00 in Snow Light Snow
4:53 PM 19.9 °F 7.3 °F 8.1 °F 60% 29.22 in 2.5 mi NW 12.7 mph 34.5 mph 0.00 in Snow Light Snow
5:13 PM 19.4 °F 5.5 °F 5.0 °F 54% 29.23 in 4.0 mi NW 15.0 mph 29.9 mph 0.00 in Snow Light Snow
5:53 PM 19.0 °F 8.2 °F 3.0 °F 50% 29.26 in 10.0 mi NW 9.2 mph 26.5 mph 0.00 in   Overcast
6:53 PM 19.0 °F 6.1 °F 1.9 °F 47% 29.29 in 10.0 mi WNW 12.7 mph 27.6 mph N/A   Overcast
7:53 PM 19.0 °F 5.6 °F 1.9 °F 47% 29.32 in 10.0 mi WNW 13.8 mph 25.3 mph N/A   Overcast
8:53 PM 19.9 °F 9.3 °F 1.9 °F 46% 29.34 in 9.0 mi WNW 9.2 mph 29.9 mph N/A   Overcast
9:53 PM 19.9 °F 6.7 °F 1.9 °F 46% 29.37 in 10.0 mi WNW 13.8 mph 28.8 mph N/A   Overcast
10:53 PM 19.9 °F 6.2 °F 1.9 °F 46% 29.40 in 10.0 mi WNW 15.0 mph 32.2 mph N/A   Overcast